Laurent Verva

Laurent Verva

Statistiques 2026

  • Courses courues : 42
  • Nb de victoires : -
  • Nb de places : 1
  • Écart gagnant : 143
  • Réussite à la gagne : -
  • Réussite à la place : 2%
Musique : 0a 8a 4a 6a 6a 0a 5a 5a Da 2a 9a 6a 5a Da 6a 0a 7a 4a
DateRangCatégorieAlloc.Dist.HippodromeChevalRed. KmSpé.
24/07/16 3 Trot 15 000€ 2 625m Saint Omer Djedje Nathanpi 1'20"8 Attelé
24/07/16 2 Trot 15 000€ 2 625m Saint Omer Coup d'Eclat 1'19"7 Attelé
24/07/16 7 Trot 15 000€ 2 625m Saint Omer Cannelle du Loisir 1'20"6 Attelé
24/07/16 D Trot 30 000€ 2 625m Saint Omer Alexis des Pres Attelé
18/09/16 2 Trot 14 000€ 2 625m Saint Omer Dulcinee d'Arbaz 1'22"0 Attelé
18/09/16 0 Trot 15 000€ 2 650m Saint Omer Cidre de Mareuil Attelé
18/09/16 1 Trot 14 000€ 2 625m Saint Omer Do Kiss Me 1'23"4 Attelé
18/09/16 0 Trot 25 000€ 2 650m Saint Omer Uhland Attelé
18/09/16 3 Trot 15 000€ 2 650m Saint Omer Bandit du Houlet 1'18"9 Attelé
02/10/16 D Trot 12 000€ 2 625m Saint Omer Dandy du Rosay Attelé
02/10/16 8 Trot 12 000€ 2 625m Saint Omer Destin de Bougy 1'23"2 Attelé
02/10/16 D Trot 12 000€ 2 650m Saint Omer Cannelle du Loisir Attelé
02/10/16 6 Trot 12 000€ 2 625m Saint Omer Dryade des Salines 1'23"3 Attelé
02/10/16 0 Trot 12 000€ 2 650m Saint Omer Calife des Salines Attelé
02/10/16 D Trot 12 000€ 2 650m Saint Omer Cedre de la Vallee Attelé
01/05/17 4 Trot 12 000€ 2 650m Saint Omer Destrier d'Isques 1'19"2 Attelé
01/05/17 7 Trot 28 000€ 2 625m Saint Omer Vinci le Fol 1'18"6 Attelé
01/05/17 5 Trot 15 000€ 2 650m Saint Omer Cristiano d'Arc 1'17"7 Attelé
01/05/17 D Trot 12 000€ 2 625m Saint Omer Donna d'Arc Attelé
11/06/17 2 Trot 21 000€ 2 625m Saint Omer Bilingue d'Alci Attelé
11/06/17 7 Trot 23 000€ 2 625m Saint Omer Calie du Lion 1'18"6 Attelé
11/06/17 4 Trot 34 000€ 2 625m Saint Omer Buxus Calendes 1'16"7 Attelé
11/06/17 D Trot 22 000€ 2 625m Saint Omer Delicadeza Attelé
03/09/17 5 Trot 15 000€ 2 625m Saint Omer Elisee du Pont 1'20"8 Attelé
03/09/17 7 Trot 15 000€ 2 650m Saint Omer Derby de Sia 1'18"6 Attelé
03/09/17 2 Trot 15 000€ 2 625m Saint Omer Ezigor Nathanpi 1'20"0 Attelé
03/09/17 D Trot 25 000€ 2 625m Saint Omer Banana Star Attelé
03/09/17 1 Trot 15 000€ 2 650m Saint Omer Dryade des Salines 1'17"9 Attelé
03/09/17 1 Trot 17 000€ 2 625m Saint Omer Cresus du Cyd 1'17"9 Attelé
01/10/17 3 Trot 12 000€ 2 625m Saint Omer Ethano de Bouteau 1'20"9 Attelé
01/10/17 7 Trot 12 000€ 2 625m Saint Omer Deesse d'Ardennes 1'21"2 Attelé
01/10/17 3 Trot 12 000€ 2 625m Saint Omer Elisee du Pont 1'19"5 Attelé
01/10/17 3 Trot 12 000€ 2 625m Saint Omer Destin de Bougy 1'19"0 Attelé
01/10/17 1 Trot 12 000€ 2 625m Saint Omer Destrier d'Isques 1'18"5 Attelé
15/04/18 7 Trot 32 000€ 2 650m Saint Omer Venus du Rosay 1'15"3 Attelé
15/04/18 5 Trot 15 000€ 2 625m Saint Omer Easy de Navary 1'18"7 Attelé
15/04/18 9 Trot 17 000€ 2 625m Saint Omer Balladine d'Alci 1'17"4 Attelé
01/05/18 9 Trot 22 000€ 2 650m Saint Omer Viva Well 1'18"0 Attelé
01/05/18 2 Trot 15 000€ 2 650m Saint Omer Diego du Houlet 1'18"4 Attelé
01/05/18 5 Trot 12 000€ 2 625m Saint Omer Elsa d'Amor 1'21"4 Attelé
10/06/18 3 Trot 10 000€ 2 625m Saint Omer Fire Bird 1'19"2 Attelé
10/06/18 1 Trot 10 000€ 2 625m Saint Omer Felinara 1'20"7 Attelé
10/06/18 D Trot 30 000€ 2 650m Saint Omer Verso de Made Attelé
02/09/18 6 Trot 13 000€ 2 625m Saint Omer Fidji Song 1'20"3 Attelé
02/09/18 0 Trot 14 000€ 2 650m Saint Omer Eden Pierji Attelé
02/09/18 4 Trot 13 000€ 2 625m Saint Omer Flashback Syga 1'21"2 Attelé
02/09/18 2 Trot 25 000€ 2 650m Saint Omer Au Temps Dubonheur 1'15"9 Attelé
02/09/18 D Trot 14 000€ 2 625m Saint Omer Epona des Neuzy Attelé
02/09/18 8 Trot 15 000€ 2 625m Saint Omer Dryade des Salines 1'20"2 Attelé
23/09/18 1 Trot 12 000€ 2 625m Saint Omer Flashback Syga 1'24"5 Attelé